When you browse on this site, cookies collect data to enhance your experience and personalize the content and advertising you see.
Visit our Privacy Policy to learn more. By continuing to use the site, you agree to this use of cookies and data.
  • In Hungary
  • List of Countries
  • For 7 days
  • Water Temperature
  • Weather Map
  • News
  • Weather Widgets
  • user-avatar
    Login

    Hourly Weather Dinamovskiy

    Today, 22 January, Wednesday

    Time Temperature Precipitation Wind Pressure Humidity
    00:00 -5°C° 0.6 mm 8 mps 722 mmHg 93%
    01:00 -5°C° 0.5 mm 8 mps 722 mmHg 95%
    02:00 -4°C° 0.5 mm 8 mps 721 mmHg 96%
    03:00 -4°C° 0 mm 8 mps 720 mmHg 95%
    04:00 -4°C° 0.3 mm 8 mps 720 mmHg 96%
    05:00 -4°C° 0.3 mm 8 mps 720 mmHg 96%
    06:00 -4°C° 0.3 mm 8 mps 719 mmHg 97%
    07:00 -4°C° 0.2 mm 8 mps 719 mmHg 97%
    08:00 -4°C° 0.2 mm 8 mps 720 mmHg 96%
    09:00 -4°C° 0.2 mm 8 mps 720 mmHg 96%
    10:00 -3°C° 0.1 mm 7 mps 720 mmHg 95%
    11:00 -3°C° 0.1 mm 7 mps 720 mmHg 93%
    12:00 -4°C° 0.1 mm 6 mps 721 mmHg 92%
    13:00 -4°C° 0.1 mm 6 mps 721 mmHg 91%
    14:00 -5°C° 0.1 mm 6 mps 721 mmHg 89%
    15:00 -5°C° 0.1 mm 6 mps 721 mmHg 88%
    16:00 -5°C° 0 mm 5 mps 720 mmHg 89%
    17:00 -6°C° 0 mm 5 mps 720 mmHg 90%
    18:00 -6°C° 0 mm 5 mps 720 mmHg 91%
    19:00 -5°C° 0 mm 4 mps 720 mmHg 92%
    20:00 -7°C° 0 mm 4 mps 720 mmHg 93%
    21:00 -7°C° 0 mm 3 mps 720 mmHg 94%
    22:00 -7°C° 0 mm 3 mps 720 mmHg 94%
    23:00 -8°C° 0 mm 3 mps 719 mmHg 95%

    Tomorrow, 23 January, Thursday

    Time Temperature Precipitation Wind Pressure Humidity
    00:00 -7°C° 0 mm 2 mps 719 mmHg 95%
    01:00 -7°C° 0 mm 2 mps 719 mmHg 95%
    02:00 -8°C° 0 mm 2 mps 719 mmHg 95%
    03:00 -8°C° 0 mm 2 mps 718 mmHg 95%
    04:00 -8°C° 0.1 mm 2 mps 718 mmHg 95%
    05:00 -7°C° 0.1 mm 2 mps 718 mmHg 95%
    06:00 -7°C° 0.1 mm 2 mps 718 mmHg 95%
    07:00 -6°C° 0.4 mm 1 mps 718 mmHg 96%
    08:00 -4°C° 0.4 mm 1 mps 719 mmHg 96%
    09:00 -4°C° 0.4 mm 1 mps 719 mmHg 96%
    10:00 -7°C° 0.3 mm 3 mps 719 mmHg 94%
    11:00 -7°C° 0.3 mm 5 mps 720 mmHg 93%
    12:00 -8°C° 0.3 mm 7 mps 720 mmHg 91%
    13:00 -8°C° 0 mm 6 mps 721 mmHg 90%
    14:00 -9°C° 0 mm 6 mps 721 mmHg 90%
    15:00 -8°C° 0 mm 5 mps 722 mmHg 89%
    16:00 -10°C° 0 mm 5 mps 722 mmHg 89%
    17:00 -11°C° 0 mm 5 mps 723 mmHg 90%
    18:00 -11°C° 0 mm 5 mps 724 mmHg 90%
    19:00 -12°C° 0 mm 5 mps 724 mmHg 91%
    20:00 -12°C° 0 mm 4 mps 725 mmHg 92%
    21:00 -14°C° 0 mm 4 mps 726 mmHg 92%
    22:00 -14°C° 0 mm 4 mps 726 mmHg 93%
    23:00 -15°C° 0 mm 4 mps 727 mmHg 94%

    Day after tomorrow, 24 January, Friday

    Time Temperature Precipitation Wind Pressure Humidity
    00:00 -16°C° 0 mm 4 mps 727 mmHg 94%
    01:00 -16°C° 0 mm 4 mps 728 mmHg 95%
    02:00 -17°C° 0 mm 4 mps 728 mmHg 95%
    03:00 -17°C° 0 mm 4 mps 729 mmHg 95%
    04:00 -17°C° 0 mm 4 mps 729 mmHg 95%
    05:00 -18°C° 0 mm 4 mps 729 mmHg 95%
    06:00 -18°C° 0 mm 4 mps 730 mmHg 96%
    07:00 -18°C° 0 mm 4 mps 730 mmHg 95%
    08:00 -18°C° 0 mm 4 mps 731 mmHg 95%
    09:00 -18°C° 0 mm 4 mps 732 mmHg 95%
    10:00 -17°C° 0 mm 4 mps 732 mmHg 94%
    11:00 -16°C° 0 mm 4 mps 732 mmHg 93%
    12:00 -15°C° 0 mm 4 mps 733 mmHg 92%
    13:00 -15°C° 0 mm 4 mps 733 mmHg 92%
    14:00 -15°C° 0 mm 4 mps 732 mmHg 92%
    15:00 -16°C° 0 mm 4 mps 732 mmHg 91%
    16:00 -16°C° 0 mm 4 mps 732 mmHg 91%
    17:00 -17°C° 0 mm 5 mps 732 mmHg 90%
    18:00 -17°C° 0 mm 5 mps 732 mmHg 89%
    19:00 -17°C° 0 mm 5 mps 731 mmHg 88%
    20:00 -15°C° 0 mm 5 mps 731 mmHg 87%
    21:00 -16°C° 0 mm 6 mps 731 mmHg 86%
    22:00 -15°C° 0.1 mm 6 mps 730 mmHg 88%
    23:00 -14°C° 0.1 mm 7 mps 729 mmHg 91%

    25 January, Saturday

    Time Temperature Precipitation Wind Pressure Humidity
    00:00 -13°C° 0.1 mm 7 mps 728 mmHg 93%
    01:00 -12°C° 0.3 mm 7 mps 727 mmHg 93%
    02:00 -11°C° 0.3 mm 7 mps 726 mmHg 94%
    03:00 -9°C° 0.3 mm 7 mps 726 mmHg 94%
    04:00 -7°C° 0.2 mm 7 mps 725 mmHg 95%
    05:00 -6°C° 0.2 mm 7 mps 725 mmHg 95%
    06:00 -4°C° 0.2 mm 7 mps 725 mmHg 96%
    07:00 -4°C° 0.1 mm 6 mps 725 mmHg 94%
    08:00 -4°C° 0.1 mm 5 mps 726 mmHg 92%
    09:00 -5°C° 0.1 mm 5 mps 726 mmHg 90%
    10:00 -4°C° 0 mm 5 mps 726 mmHg 91%
    11:00 -4°C° 0 mm 5 mps 726 mmHg 91%
    12:00 -2°C° 0 mm 5 mps 726 mmHg 92%
    13:00 -2°C° 0 mm 5 mps 726 mmHg 93%
    14:00 -2°C° 0 mm 5 mps 725 mmHg 95%
    15:00 -2°C° 0 mm 5 mps 725 mmHg 97%
    16:00 -2°C° 0.2 mm 5 mps 725 mmHg 97%
    17:00 -3°C° 0.2 mm 6 mps 724 mmHg 97%
    18:00 -3°C° 0.2 mm 7 mps 724 mmHg 97%
    19:00 -3°C° 0.1 mm 7 mps 724 mmHg 97%
    20:00 -3°C° 0.1 mm 7 mps 723 mmHg 96%
    21:00 -4°C° 0.1 mm 8 mps 723 mmHg 96%
    22:00 -4°C° 0.3 mm 8 mps 722 mmHg 96%
    23:00 -4°C° 0.3 mm 8 mps 722 mmHg 96%

    26 January, Sunday

    Time Temperature Precipitation Wind Pressure Humidity
    00:00 -4°C° 0.3 mm 9 mps 721 mmHg 96%
    01:00 -4°C° 0.3 mm 9 mps 721 mmHg 94%
    02:00 -5°C° 0.3 mm 9 mps 721 mmHg 93%
    03:00 -5°C° 0.3 mm 9 mps 721 mmHg 91%
    04:00 -6°C° 0.2 mm 9 mps 721 mmHg 89%
    05:00 -8°C° 0.2 mm 9 mps 721 mmHg 86%
    06:00 -9°C° 0.2 mm 9 mps 722 mmHg 83%
    07:00 -9°C° 0 mm 9 mps 722 mmHg 85%
    08:00 -10°C° 0 mm 9 mps 723 mmHg 87%
    09:00 -10°C° 0 mm 9 mps 724 mmHg 89%
    10:00 -10°C° 0 mm 9 mps 725 mmHg 88%
    11:00 -10°C° 0 mm 9 mps 725 mmHg 87%
    12:00 -9°C° 0 mm 9 mps 726 mmHg 87%
    13:00 -9°C° 0 mm 9 mps 726 mmHg 87%
    14:00 -9°C° 0 mm 9 mps 727 mmHg 88%
    15:00 -10°C° 0 mm 8 mps 727 mmHg 89%
    16:00 -10°C° 0.1 mm 8 mps 728 mmHg 89%
    17:00 -10°C° 0.1 mm 8 mps 729 mmHg 90%
    18:00 -9°C° 0.1 mm 7 mps 729 mmHg 90%
    19:00 -11°C° 0 mm 7 mps 730 mmHg 89%
    20:00 -12°C° 0 mm 7 mps 731 mmHg 88%
    21:00 -11°C° 0 mm 6 mps 732 mmHg 87%
    22:00 -12°C° 0 mm 6 mps 732 mmHg 88%
    23:00 -13°C° 0 mm 5 mps 733 mmHg 89%

    27 January, Monday

    Time Temperature Precipitation Wind Pressure Humidity
    00:00 -14°C° 0 mm 5 mps 733 mmHg 91%
    01:00 -14°C° 0 mm 5 mps 734 mmHg 91%
    02:00 -14°C° 0 mm 5 mps 735 mmHg 91%
    03:00 -14°C° 0 mm 5 mps 736 mmHg 91%
    04:00 -15°C° 0 mm 5 mps 736 mmHg 91%
    05:00 -15°C° 0 mm 5 mps 737 mmHg 92%
    06:00 -17°C° 0 mm 5 mps 737 mmHg 92%
    07:00 -18°C° 0 mm 5 mps 738 mmHg 92%
    08:00 -18°C° 0 mm 5 mps 739 mmHg 92%
    09:00 -18°C° 0 mm 4 mps 740 mmHg 92%
    10:00 -17°C° 0 mm 4 mps 740 mmHg 92%
    11:00 -16°C° 0 mm 4 mps 741 mmHg 91%
    12:00 -16°C° 0 mm 4 mps 742 mmHg 90%
    13:00 -15°C° 0 mm 3 mps 742 mmHg 91%
    14:00 -14°C° 0 mm 2 mps 742 mmHg 92%
    15:00 -12°C° 0 mm 1 mps 742 mmHg 92%
    16:00 -13°C° 0 mm 1 mps 743 mmHg 91%
    17:00 -14°C° 0 mm 1 mps 743 mmHg 90%
    18:00 -15°C° 0 mm 1 mps 743 mmHg 89%
    19:00 -15°C° 0 mm 1 mps 743 mmHg 87%
    20:00 -17°C° 0 mm 2 mps 743 mmHg 85%
    21:00 -17°C° 0 mm 2 mps 743 mmHg 83%
    22:00 -17°C° 0 mm 3 mps 743 mmHg 85%
    23:00 -16°C° 0 mm 3 mps 743 mmHg 87%
    Show more